ONEWEB-0523, 54141

Orbit data source: Space-Track

ONEWEB-0523, 54141 is a payload satellite owned by One Web (NAA) (UK) in LEO that was launched on Sat, 22 Oct 2022 UTC via a LVM3 launch vehicle from the Sirharikota (SRI). Payload-class satellites include a variety of spacecraft equipped with specific instruments for various scientific and technological missions. These include communications satellites like Starlink; space stations such as the ISS; scientific satellites like the Hubble; Earth observation satellites from companies like Planet Labs, Umbra, and HawkEye 360; GPS; miniature CubeSats for education and research; and military/defense satellites.

Loading next visibility...
Identifier
54141, 2022-138AE
Orbit
LEO
Country
Flag of UKUK
Related business
Manufacturer
One Web
Mission
Operational Commercial Communications
Bus & Motor
ARROW, Unknown motor
Mass
148 kg wet, ~140 kg dry
Launch date (UTC)
2022-10-22 (4 years ago)
Launch vehicle
LVM3
Launch site
Sirharikota (SRI)
Object type
Payload
Rocket body
Debris
Shape & HBR
Trap Box + 2 Pan, 6.7 m
Radar Cross Section
3.464 m², Large (>1 m²)

Expand to show TLE details & history
Last TLE update: 2 days ago

TLE from 2 days ago
0 ONEWEB-0523
1 54141U 22138AE  26171.28686477  .00000058  00000-0  10952-3 0  9999
2 54141  87.9198 273.8226 0002789  96.0062 264.1389 13.20771596179717
Epoch: 2026-06-20T06:53Z
TLE epoch observation values (Epoch: 2026-06-20T06:53:05.116Z)
Latitude
-0.00002°
Longitude
-97.95238°
Altitude
1,184.893 km
Speed
7.261 km/s
True Right ascension
18h 15m 17s
True Declination
0° 00' 00"
Sunlit
Object was in full shadow at epoch
Visualization orbit readout
Latitude
Unknown
Longitude
Unknown
Altitude
Unknown
Speed
Unknown
Apparent Right ascension
Unknown
Apparent Declination
Unknown
Sunlit
N/A
Visualization observer readout
Local Sidereal Time
21:31:00
Azimuth
Unknown
Elevation
Unknown
Doppler factor
Unknown
Orbital elements
Apogee altitude
1,180.986 km
Perigee altitude
1,176.771 km
Semi-major axis
7,557.015 km
Eccentricity
0.00028
Inclination
87.9198°
RAAN
273.8226°
Arg. of periapsis
96.0062°
True anomaly
264.10711°
Mean anomaly
264.1389°
Eccentric anomaly
264.123°
Mean motion
3.30383 °/min
Orbital period
108.96 mins
BSTAR
0.00010952
Loading maneuver chart data...
Computing Atmospheric mass density...
Loading historical data...
Loading historical data...
Loading historical data...
Loading historical data...
Loading historical data...
Loading historical data...
Loading historical data...

Documentation

Showing up to 5 results
|